Regional Weather Roundup
Issued by NWS

Home | Current Version | Previous Version | Text Only | Print | Product List | Glossary On
Versions: 1 2 3 4 5 6 7 8 9 10 11 12 13 14 15 16 17 18 19 20 21 22 23 24 25 26 27 28 29 30 31 32 33 34 35 36 37 38 39 40 41 42 43 44 45 46 47 48 49 50
000
ASUS43 KLMK 311310
RWRKY
KENTUCKY REGIONAL WEATHER ROUNDUP
NATIONAL WEATHER SERVICE LOUISVILLE KY
800 AM EST SAT JAN 31 2015

NOTE "FAIR" INDICATES FEW OR NO CLOUDS BELOW 12,000 FEET
WITH NO SIGNIFICANT WEATHER AND/OR OBSTRUCTIONS TO VISIBILITY.

KYZ001>023-026-027-061>063-070>075-311400-
WESTERN AND SOUTH CENTRAL KENTUCKY

CITY           SKY/WX    TMP DP  RH WIND       PRES   REMARKS
PADUCAH        MOCLDY    27  23  85 CALM      30.38S
HENDERSON      MOCLDY    25  19  80 CALM      30.38S
OWENSBORO      PTCLDY    25  22  88 CALM      30.39R
HOPKINSVILLE   CLOUDY    27  22  81 CALM      30.39R
BOWLING GREEN  MOCLDY    22  18  85 CALM      30.40R
GLASGOW        PTCLDY    20  20  98 CALM      30.38S
$$

KYZ024-025-028>034-038-045-046-053-311400-
NORTH CENTRAL KENTUCKY

CITY           SKY/WX    TMP DP  RH WIND       PRES   REMARKS
LOUISVILLE/SDF MOCLDY    22  16  78 SE3       30.39R
LOUISVILLE/LOU MOCLDY    23  16  74 CALM      30.39R
FORT KNOX      PTCLDY    19  15  85 S1        30.36R
$$

KYZ035>037-039>044-047>052-055>060-089>105-311400-
NORTHEAST KENTUCKY

CITY           SKY/WX    TMP DP  RH WIND       PRES   REMARKS
LEXINGTON      PTCLDY    20  14  77 S7        30.38R WCI  11
COVINGTON      MOCLDY    16  12  84 S5        30.37R WCI   9
FRANKFORT      PTCLDY    16  12  84 CALM      30.37R
$$

KYZ054-064>069-076>088-106>120-311400-
SOUTHEAST KENTUCKY

CITY           SKY/WX    TMP DP  RH WIND       PRES   REMARKS
JACKSON        PTCLDY    19  13  77 S3        30.36R
LONDON         PTCLDY    19  13  77 CALM      30.37R
SOMERSET       PTCLDY    19  18  93 CALM      30.41R
MIDDLESBORO    PTCLDY    18  16  93 CALM      30.40R
MONTICELLO     MOSUNNY   18  15  88 CALM      30.42R
$$




USA.gov is the U.S. government's official web portal to all federal, state and local government web resources and services.